Location: Jaite
(41.2884°N, 81.5737°W)
Time: 01:01:12
(UTC+00:00)

Cosmos 1980 Rocket - Pass Details

Date: 18 January 2020
Orbit: 831 x 848 km, 71.0° (Epoch: 28 February)

Event Time Altitude Azimuth Distance (km) Brightness Sun altitude
Rises 10:21:00 0° 178° (S) 3,395 5.4 -27.4°
Reaches altitude 10° 10:23:37 10° 170° (S) 2,463 4.8 -26.9°
Maximum altitude 10:28:44 36° 105° (ESE) 1,310 3.7 -25.9°
Drops below altitude 10° 10:33:52 10° 40° (NE) 2,473 5.0 -25.0°
Sets 10:36:28 0° 32° (NNE) 3,410 5.7 -24.5°
